Weather History for Vinton, IA

Change the Weather History Date:

Tuesday, March 4, 2014

  Actual Average Record
Temperature  
Mean Temperature 16 °F -  
Max Temperature 23 °F 42 °F 62 °F (1992)
Min Temperature 9 °F 23 °F -9 °F (1978)
Degree Days  
Heating Degree Days 49    
Moisture  
Dew Point 7 °F    
Average Humidity 64    
Maximum Humidity 73    
Minimum Humidity 51    
Precipitation  
Precipitation 0.00 in - - ()
Sea Level Pressure  
Sea Level Pressure 30.17 in    
Wind  
Wind Speed 8 mph (SE)    
Max Wind Speed 12 mph    
Max Gust Speed -    
Visibility 10 miles    
Events      
Averages and records for this station are not official NWS values.
T = Trace of Precipitation, MM = Missing Value Source: NWS Daily Summary

Daily Weather History Graph

Daily Weather History Graph

Search for Another Location

Airport:

Trip Planner

Search our weather history database for the weather conditions in past years. The results will help you decide how hot, cold, wet, or windy it might be!

Date:

Astronomy

Mar. 04, 2014 Rise Set
Actual Time 6:38 AM CST 6:01 PM CST
Civil Twilight 6:10 AM CST 6:29 PM CST
Nautical Twilight 5:38 AM CST 7:02 PM CST
Astronomical Twilight 5:05 AM CST 7:34 PM CST
Moon 8:20 AM CST (3/4) 10:14 PM CST (3/4)
Length of Visible Light 12h 19m
Length of Day
11h 23m
Waxing Crescent, 15% of the Moon is Illuminated
Mar 4
Waxing Crescent
Mar 8
First Quarter
Mar 16
Full
Mar 23
Last Quarter
Mar 30
New

Hourly Weather History & Observations

Time (CST) Temp. Windchill Dew Point Humidity Pressure Visibility Wind Dir Wind Speed Gust Speed Precip Events Conditions
12:15 AM 12.0 °F -2.0 °F 4.6 °F 72% 30.26 in 10.0 mi South 11.5 mph - N/A   Scattered Clouds
12:35 AM 12.0 °F 0.5 °F 4.1 °F 71% 30.26 in 10.0 mi South 8.1 mph - N/A   Overcast
12:55 AM 12.0 °F -1.3 °F 4.1 °F 71% 30.25 in 10.0 mi South 10.4 mph - N/A   Mostly Cloudy
1:15 AM 12.0 °F -1.3 °F 4.1 °F 71% 30.24 in 10.0 mi SSE 10.4 mph - N/A   Scattered Clouds
1:35 AM 12.0 °F -0.4 °F 3.6 °F 69% 30.25 in 10.0 mi South 9.2 mph - N/A   Scattered Clouds
1:55 AM 12.0 °F 0.5 °F 3.0 °F 67% 30.25 in 10.0 mi South 8.1 mph - N/A   Scattered Clouds
2:15 AM 12.0 °F 0.5 °F 2.8 °F 67% 30.24 in 10.0 mi South 8.1 mph - N/A   Scattered Clouds
2:35 AM 12.0 °F 1.5 °F 2.3 °F 65% 30.23 in 10.0 mi South 6.9 mph - N/A   Scattered Clouds
2:55 AM 12.0 °F -0.4 °F 1.9 °F 64% 30.22 in 10.0 mi South 9.2 mph - N/A   Scattered Clouds
3:15 AM 12.0 °F -1.3 °F 1.9 °F 64% 30.21 in 10.0 mi South 10.4 mph - N/A   Clear
3:35 AM 12.0 °F -0.4 °F 2.1 °F 65% 30.20 in 10.0 mi South 9.2 mph - N/A   Clear
3:55 AM 12.0 °F 4.1 °F 2.3 °F 65% 30.20 in 10.0 mi SSE 4.6 mph - N/A   Clear
4:15 AM 10.8 °F 0.0 °F 2.1 °F 68% 30.20 in 10.0 mi SSE 6.9 mph - N/A   Clear
4:35 AM 9.7 °F -1.3 °F 1.4 °F 69% 30.20 in 10.0 mi South 6.9 mph - N/A   Clear
4:55 AM 10.2 °F -2.7 °F 1.8 °F 69% 30.20 in 10.0 mi South 9.2 mph - N/A   Clear
5:15 AM 9.5 °F -2.6 °F 0.7 °F 67% 30.20 in 10.0 mi South 8.1 mph - N/A   Clear
5:35 AM 9.5 °F -2.6 °F 0.5 °F 67% 30.19 in 10.0 mi South 8.1 mph - N/A   Clear
5:55 AM 9.5 °F -1.5 °F 0.5 °F 67% 30.19 in 10.0 mi South 6.9 mph - N/A   Clear
6:15 AM 9.5 °F 1.2 °F 0.5 °F 67% 30.19 in 10.0 mi South 4.6 mph - N/A   Clear
6:35 AM 9.5 °F -0.3 °F 0.9 °F 68% 30.19 in 10.0 mi South 5.8 mph - N/A   Clear
6:55 AM 9.5 °F -0.3 °F 1.2 °F 69% 30.19 in 10.0 mi South 5.8 mph - N/A   Clear
7:15 AM 9.5 °F -0.3 °F 1.2 °F 69% 30.18 in 10.0 mi South 5.8 mph - N/A   Clear
7:35 AM 9.5 °F -0.3 °F 0.5 °F 67% 30.18 in 10.0 mi South 5.8 mph - N/A   Clear
7:55 AM 10.9 °F 0.2 °F 1.0 °F 64% 30.18 in 10.0 mi SSE 6.9 mph - N/A   Clear
8:15 AM 12.0 °F 1.5 °F 1.6 °F 63% 30.18 in 10.0 mi South 6.9 mph - N/A   Clear
8:40 AM 14.4 °F 5.5 °F 3.6 °F 62% 30.18 in 10.0 mi South 5.8 mph - N/A   Clear
8:55 AM 14.5 °F 4.6 °F 3.6 °F 62% 30.18 in 10.0 mi South 6.9 mph - N/A   Clear
9:15 AM 14.5 °F 4.6 °F 3.6 °F 62% 30.17 in 10.0 mi SSE 6.9 mph - N/A   Clear
9:35 AM 14.5 °F 4.6 °F 3.7 °F 62% 30.18 in 10.0 mi SSE 6.9 mph - N/A   Clear
9:55 AM 15.8 °F 6.1 °F 4.6 °F 61% 30.18 in 10.0 mi SSE 6.9 mph - N/A   Clear
10:15 AM 17.1 °F 7.6 °F 5.5 °F 61% 30.17 in 10.0 mi SSE 6.9 mph - N/A   Clear
10:35 AM 17.1 °F 10.0 °F 4.8 °F 59% 30.17 in 10.0 mi South 4.6 mph - N/A   Clear
10:55 AM 17.6 °F 9.3 °F 5.4 °F 59% 30.17 in 10.0 mi SE 5.8 mph - N/A   Clear
11:15 AM 19.2 °F 12.5 °F 6.8 °F 59% 30.16 in 10.0 mi ESE 4.6 mph - N/A   Clear
11:35 AM 19.4 °F 14.3 °F 5.5 °F 55% 30.17 in 10.0 mi SE 3.5 mph - N/A   Clear
11:55 AM 20.8 °F 14.4 °F 7.3 °F 56% 30.17 in 10.0 mi ESE 4.6 mph - N/A   Clear
12:15 PM 20.5 °F - 6.6 °F 55% 30.17 in 10.0 mi Calm Calm - N/A   Clear
12:35 PM 20.8 °F 16.0 °F 7.2 °F 56% 30.16 in 10.0 mi SSE 3.5 mph - N/A   Clear
12:55 PM 21.7 °F - 7.2 °F 54% 30.17 in 10.0 mi Calm Calm - N/A   Clear
1:15 PM 22.1 °F - 7.3 °F 53% 30.16 in 10.0 mi Calm Calm - N/A   Clear
1:35 PM 23.0 °F - 7.3 °F 51% 30.15 in 10.0 mi Calm Calm - N/A   Clear
1:55 PM 23.4 °F 18.9 °F 7.7 °F 51% 30.14 in 10.0 mi SSE 3.5 mph - N/A   Clear
2:15 PM 22.6 °F 15.3 °F 8.2 °F 54% 30.13 in 10.0 mi East 5.8 mph - N/A   Clear
2:35 PM 22.3 °F 14.9 °F 8.4 °F 55% 30.11 in 10.0 mi East 5.8 mph - N/A   Clear
2:55 PM 22.1 °F 12.8 °F 9.3 °F 58% 30.12 in 10.0 mi East 8.1 mph - N/A   Clear
3:15 PM 23.2 °F 16.0 °F 9.7 °F 56% 30.12 in 10.0 mi ENE 5.8 mph - N/A   Clear
3:35 PM 22.8 °F 13.6 °F 10.4 °F 59% 30.11 in 10.0 mi ENE 8.1 mph - N/A   Clear
3:55 PM 22.8 °F 14.5 °F 10.4 °F 59% 30.11 in 10.0 mi ENE 6.9 mph - N/A   Clear
4:15 PM 22.8 °F 14.5 °F 10.2 °F 59% 30.11 in 10.0 mi East 6.9 mph - N/A   Clear
4:35 PM 22.5 °F 13.2 °F 10.2 °F 59% 30.11 in 10.0 mi NE 8.1 mph - N/A   Clear
5:00 PM 21.4 °F 11.9 °F 10.6 °F 63% 30.12 in 10.0 mi ENE 8.1 mph - N/A   Clear
5:15 PM 21.0 °F 9.3 °F 10.4 °F 64% 30.12 in 10.0 mi ENE 11.5 mph - N/A   Clear
5:35 PM 21.0 °F 9.9 °F 10.4 °F 64% 30.13 in 10.0 mi ENE 10.4 mph - N/A   Clear
5:55 PM 20.8 °F 12.1 °F 10.4 °F 64% 30.14 in 10.0 mi ENE 6.9 mph - N/A   Clear
6:15 PM 19.9 °F 10.1 °F 10.4 °F 67% 30.14 in 10.0 mi ENE 8.1 mph - N/A   Clear
6:35 PM 19.4 °F 10.4 °F 10.2 °F 68% 30.15 in 10.0 mi ENE 6.9 mph - N/A   Clear
6:55 PM 19.4 °F 11.5 °F 10.9 °F 70% 30.16 in 10.0 mi ENE 5.8 mph - N/A   Clear
7:15 PM 19.4 °F 9.5 °F 11.3 °F 71% 30.15 in 10.0 mi ENE 8.1 mph - N/A   Clear
7:35 PM 19.4 °F 7.9 °F 11.3 °F 71% 30.14 in 10.0 mi ENE 10.4 mph - N/A   Clear
7:55 PM 19.4 °F 7.9 °F 11.1 °F 70% 30.14 in 10.0 mi East 10.4 mph - N/A   Clear
8:15 PM 19.6 °F 8.1 °F 10.8 °F 69% 30.14 in 10.0 mi East 10.4 mph - N/A   Clear
8:35 PM 19.4 °F 8.6 °F 10.9 °F 70% 30.14 in 10.0 mi East 9.2 mph - N/A   Clear
8:55 PM 19.9 °F 10.1 °F 11.8 °F 71% 30.15 in 10.0 mi East 8.1 mph - N/A   Clear
9:15 PM 20.8 °F 9.7 °F 12.0 °F 69% 30.14 in 10.0 mi East 10.4 mph - N/A   Clear
9:35 PM 20.8 °F 10.4 °F 11.8 °F 68% 30.16 in 10.0 mi East 9.2 mph - N/A   Clear
9:55 PM 19.4 °F 11.5 °F 11.1 °F 70% 30.18 in 10.0 mi East 5.8 mph - N/A   Clear
10:15 PM 20.7 °F 11.0 °F 11.8 °F 69% 30.18 in 10.0 mi ENE 8.1 mph - N/A   Mostly Cloudy
10:35 PM 20.8 °F 11.2 °F 11.8 °F 68% 30.18 in 10.0 mi ENE 8.1 mph - N/A   Overcast
10:55 PM 20.7 °F 10.2 °F 12.0 °F 69% 30.19 in 10.0 mi East 9.2 mph - N/A   Mostly Cloudy
11:15 PM 19.4 °F 8.6 °F 11.7 °F 72% 30.19 in 10.0 mi East 9.2 mph - N/A   Clear
11:35 PM 19.4 °F 8.6 °F 12.0 °F 73% 30.20 in 10.0 mi East 9.2 mph - N/A   Clear
11:55 PM 19.6 °F 8.9 °F 11.7 °F 71% 30.20 in 10.0 mi ENE 9.2 mph - N/A   Mostly Cloudy